Content
SEND FEEDBACK

Daily
Averages
Monthly
Summary
Canada

VANCOUVER - CITY HALL, BRITISH COLUMBIA


Home > North America > Canada > British Columbia
Elevation: 283 feet     Latitude: 49 17N     Longitude: 123 07W

WEATHER
 
SELECT A DAY
Number of Records: 170,098;   Date Range: 4/23/95 - 8/27/14
 
SHARE

PRINT THIS DATA

[ ← Previous Day ]
WEATHER ALMANAC - MAY 22, 2013
[ Next Day → ]
[ °C ]   °F
Weather ElementAverageHighLow
Temperature50.3 °F56.3 °F (2:00 pm)43.5 °F (6:00 am)
Dewpoint44.4 °F47.5 °F (9:00 pm)42.1 °F (6:00 am)
Humidity80.5 %95 % (1:00 am)58 % (11:00 am)
Barometer29.87 in29.95 in (11:00 pm)29.85 in (1:00 am)
Wind Speed1.9 mph4.6 mph (11:00 pm)
Weather ElementAverage
Wind DirectionSSE (142.6 °)

Weather ElementTotal
Precipitation0.14 in
Heating Degree Days15.1 (Base 65)
Averaged from 27 records on May 22, 2013
WEATHER CONDITIONS BREAKOUT
WIND DIRECTION BREAKOUT
WEATHER BY HOUR - MAY 22, 2013
[ °C ]   °F
Local TimeTemperatureDewpointHumidityBarometerVisibilityWind DirectionWind SpeedGust SpeedPrecipitationEventsConditions
1:00 AM45.7 °F44.4 °F95 %29.85 inNNE (30°)2.3 mph
2:00 AM45.7 °F44.4 °F95 %29.86 inNE (40°)2.3 mph
3:00 AM45.9 °F44.6 °F95 %29.86 inENE (70°)3.5 mph0.03 in
4:00 AM45.7 °F44.1 °F94 %29.86 inENE (70°)2.3 mph
5:00 AM45.0 °F43.0 °F92 %29.87 inNNE (30°)1.2 mph
5:00 AM44.8 °F43.3 °F95 %29.87 inNNE (30°)1.2 mph
6:00 AM43.5 °F42.1 °F95 %29.86 inNNE (20°)2.3 mph
7:00 AM44.8 °F43.3 °F95 %29.86 inNorth (10°)2.3 mph
8:00 AM47.7 °F45.1 °F91 %29.86 inNNE (30°)1.2 mph
9:00 AM49.6 °F45.1 °F84 %29.86 inWest (280°)1.2 mph
10:00 AM51.4 °F45.0 °F79 %29.86 inSSW (210°)1.2 mph
11:00 AM53.0 °F43.0 °F58 %29.86 inSSW (200°)2.3 mph
11:00 AM52.7 °F42.6 °F69 %29.86 inSSW (200°)2.3 mph
12:00 PM53.6 °F44.8 °F72 %29.86 inSouth (180°)2.3 mph
1:00 PM54.3 °F43.5 °F67 %29.87 inSW (220°)2.3 mph
2:00 PM56.3 °F45.5 °F67 %29.87 inWest (280°)2.3 mph
3:00 PM53.1 °F44.4 °F72 %29.88 inSSW (210°)1.2 mph
4:00 PM54.0 °F44.4 °F70 %29.88 inSouth (170°)1.2 mph
5:00 PM54.0 °F44.0 °F61 %29.86 inSSW (200°)1.2 mph
5:00 PM54.3 °F44.4 °F69 %29.86 inSSW (200°)1.2 mph
6:00 PM56.3 °F45.0 °F66 %29.86 inSSE (150°)1.2 mph
7:00 PM55.4 °F43.7 °F65 %29.88 inSW (230°)1.2 mph
8:00 PM53.4 °F46.0 °F76 %29.89 inSouth (170°)1.2 mph
9:00 PM51.4 °F47.5 °F86 %29.88 inEast (80°)1.2 mph
10:00 PM51.4 °F45.9 °F81 %29.91 inNorth (360°)1.2 mph
11:00 PM47.0 °F45.0 °F91 %29.95 inEast (90°)4.6 mph
11:00 PM46.9 °F45.1 °F93 %29.95 inEast (90°)4.6 mph0.11 in
Hourly data recorded from CWWA, located miles away from Vancouver - City Hall, British Columbia







STORIES FROM OUR PARTNERS